QPF
0.16 0.18 0.17 0.14 0.12 0.11 0.09 0.07 0.08 0.08 0.06 0.05 0.05 0.06 0.08 0.10 0.11 0.11 0.10 0.10 0.09 0.07 0.07 0.08 0.13 0.16 0.17 0.16 0.16 0.19 0.22 0.22 0.20 0.18 0.16 0.14 0.11 0.09
0.15 0.16 0.18 0.16 0.13 0.11 0.09 0.09 0.09 0.10 0.09 0.07 0.06 0.08 0.09 0.09 0.10 0.10 0.11 0.12 0.10 0.09 0.08 0.09 0.10 0.13 0.16 0.14 0.11 0.12 0.16 0.19 0.20 0.19 0.18 0.17 0.14 0.10
0.13 0.12 0.13 0.12 0.12 0.09 0.08 0.07 0.07 0.08 0.08 0.06 0.05 0.06 0.09 0.10 0.09 0.09 0.09 0.09 0.09 0.09 0.09 0.11 0.11 0.09 0.11 0.12 0.12 0.11 0.11 0.13 0.16 0.19 0.19 0.19 0.17 0.12
0.10 0.08 0.09 0.09 0.09 0.07 0.05 0.05 0.05 0.05 0.06 0.06 0.04 0.04 0.05 0.07 0.08 0.08 0.09 0.08 0.08 0.09 0.10 0.10 0.12 0.10 0.09 0.10 0.11 0.12 0.11 0.12 0.11 0.13 0.16 0.16 0.15 0.11
0.07 0.05 0.06 0.07 0.07 0.05 0.04 0.04 0.04 0.03 0.04 0.04 0.04 0.04 0.05 0.07 0.08 0.08 0.08 0.09 0.10 0.10 0.12 0.12 0.12 0.11 0.12 0.12 0.13 0.13 0.12 0.12 0.12 0.10 0.11 0.13 0.12 0.10
0.05 0.04 0.04 0.05 0.05 0.05 0.04 0.03 0.03 0.03 0.04 0.04 0.05 0.06 0.08 0.09 0.07 0.08 0.08 0.09 0.11 0.11 0.12 0.14 0.15 0.12 0.13 0.12 0.12 0.13 0.13 0.13 0.13 0.13 0.11 0.11 0.10 0.08
0.06 0.06 0.05 0.05 0.05 0.04 0.03 0.03 0.03 0.04 0.04 0.04 0.05 0.07 0.09 0.10 0.09 0.08 0.08 0.10 0.11 0.10 0.09 0.13 0.14 0.13 0.14 0.13 0.13 0.12 0.12 0.13 0.13 0.12 0.12 0.10 0.09 0.08
0.05 0.05 0.05 0.06 0.05 0.04 0.04 0.03 0.03 0.04 0.04 0.05 0.07 0.08 0.09 0.09 0.09 0.08 0.08 0.08 0.10 0.09 0.08 0.11 0.13 0.13 0.12 0.12 0.13 0.13 0.12 0.12 0.11 0.11 0.11 0.10 0.09 0.08
0.04 0.04 0.04 0.04 0.03 0.02 0.03 0.03 0.03 0.04 0.04 0.05 0.07 0.08 0.09 0.08 0.07 0.07 0.07 0.07 0.08 0.08 0.08 0.11 0.11 0.12 0.12 0.12 0.12 0.12 0.11 0.11 0.11 0.09 0.09 0.08 0.08 0.08
0.03 0.03 0.03 0.02 0.01 0.01 0.02 0.03 0.04 0.04 0.05 0.06 0.07 0.08 0.08 0.08 0.07 0.07 0.07 0.08 0.07 0.08 0.08 0.10 0.10 0.11 0.11 0.12 0.12 0.11 0.09 0.09 0.09 0.07 0.07 0.07 0.07 0.07
0.02 0.02 0.01 0.01 0.02 0.02 0.03 0.03 0.04 0.04 0.05 0.07 0.08 0.07 0.07 0.08 0.07 0.07 0.07 0.08 0.08 0.07 0.07 0.07 0.09 0.10 0.12 0.13 0.14 0.12 0.09 0.07 0.07 0.06 0.05 0.06 0.06 0.06
0.01 0.02 0.02 0.02 0.03 0.03 0.04 0.04 0.04 0.03 0.04 0.05 0.06 0.05 0.05 0.04 0.05 0.06 0.06 0.07 0.07 0.06 0.05 0.06 0.08 0.10 0.12 0.12 0.11 0.10 0.08 0.07 0.06 0.06 0.05 0.05 0.05 0.05
0.01 0.01 0.01 0.01 0.02 0.03 0.03 0.03 0.03 0.03 0.03 0.03 0.03 0.03 0.02 0.02 0.03 0.04 0.05 0.06 0.06 0.06 0.05 0.06 0.08 0.09 0.09 0.09 0.09 0.08 0.06 0.06 0.06 0.06 0.06 0.06 0.05 0.05
0.01 0.01 0.01 0.01 0.01 0.01 0.02 0.01 0.02 0.03 0.03 0.03 0.02 0.02 0.02 0.02 0.03 0.04 0.05 0.05 0.06 0.06 0.06 0.07 0.08 0.09 0.08 0.06 0.06 0.07 0.06 0.05 0.05 0.06 0.06 0.06 0.06 0.05
0.02 0.02 0.01 0.01 0.01 0.01 0.01 0.02 0.02 0.03 0.03 0.02 0.03 0.03 0.02 0.02 0.03 0.03 0.04 0.05 0.06 0.06 0.07 0.08 0.08 0.08 0.08 0.06 0.04 0.05 0.06 0.05 0.05 0.05 0.05 0.05 0.05 0.04
0.02 0.02 0.02 0.01 0.02 0.02 0.02 0.02 0.03 0.03 0.03 0.03 0.03 0.04 0.03 0.03 0.03 0.03 0.03 0.04 0.06 0.07 0.08 0.08 0.08 0.09 0.09 0.07 0.04 0.04 0.04 0.05 0.05 0.04 0.04 0.04 0.05 0.04
0.02 0.02 0.02 0.01 0.02 0.02 0.03 0.03 0.03 0.03 0.03 0.03 0.02 0.03 0.03 0.02 0.02 0.02 0.02 0.03 0.04 0.05 0.06 0.07 0.07 0.09 0.09 0.07 0.05 0.05 0.05 0.05 0.05 0.04 0.04 0.04 0.05 0.05
0.03 0.02 0.02 0.02 0.02 0.03 0.03 0.04 0.04 0.03 0.04 0.03 0.02 0.02 0.02 0.02 0.02 0.02 0.02 0.03 0.04 0.04 0.05 0.06 0.07 0.08 0.10 0.09 0.06 0.05 0.05 0.06 0.06 0.04 0.04 0.04 0.05 0.05
0.03 0.02 0.02 0.02 0.02 0.03 0.03 0.03 0.03 0.03 0.02 0.02 0.02 0.02 0.02 0.01 0.02 0.02 0.03 0.03 0.03 0.04 0.04 0.05 0.06 0.07 0.09 0.09 0.07 0.05 0.05 0.05 0.05 0.05 0.04 0.03 0.04 0.05
0.03 0.03 0.02 0.02 0.02 0.02 0.02 0.03 0.03 0.03 0.02 0.02 0.02 0.02 0.02 0.02 0.02 0.02 0.03 0.03 0.03 0.04 0.04 0.04 0.05 0.06 0.07 0.06 0.06 0.06 0.06 0.05 0.05 0.05 0.05 0.05 0.05 0.05
0.03 0.03 0.03 0.03 0.02 0.02 0.02 0.03 0.03 0.03 0.02 0.02 0.02 0.02 0.02 0.02 0.02 0.02 0.03 0.03 0.03 0.04 0.04 0.04 0.04 0.05 0.06 0.07 0.07 0.07 0.07 0.07 0.05 0.04 0.04 0.04 0.04 0.04
0.03 0.04 0.03 0.03 0.03 0.03 0.03 0.04 0.04 0.04 0.02 0.02 0.02 0.02 0.02 0.02 0.02 0.02 0.02 0.03 0.03 0.04 0.04 0.04 0.05 0.06 0.07 0.08 0.07 0.07 0.06 0.07 0.06 0.05 0.04 0.03 0.03 0.03
0.04 0.04 0.04 0.03 0.03 0.03 0.04 0.05 0.05 0.04 0.02 0.02 0.02 0.03 0.02 0.02 0.02 0.02 0.02 0.03 0.03 0.03 0.04 0.05 0.06 0.07 0.08 0.07 0.07 0.06 0.06 0.06 0.06 0.05 0.04 0.04 0.03 0.02
MSLP
1012.69 1012.06 1011.36 1010.53 1009.54 1008.33 1006.89 1005.23 1003.36 1001.34 999.23 997.11 995.07 993.18 991.52 990.14 989.06 988.29 987.82 987.60 987.57 987.67 987.82 987.97 988.08 988.12 988.11 988.08 988.09 988.20 988.50 989.03 989.85 990.96 992.36 994.01 995.82 997.71
1012.05 1011.43 1010.75 1009.96 1009.00 1007.81 1006.36 1004.66 1002.71 1000.58 998.32 996.02 993.78 991.70 989.86 988.31 987.11 986.25 985.73 985.51 985.52 985.68 985.93 986.20 986.45 986.65 986.82 986.98 987.19 987.52 988.03 988.77 989.79 991.08 992.63 994.37 996.24 998.14
1011.37 1010.74 1010.07 1009.29 1008.35 1007.17 1005.72 1003.99 1001.99 999.77 997.40 994.97 992.58 990.34 988.34 986.65 985.33 984.39 983.81 983.57 983.59 983.81 984.15 984.54 984.93 985.31 985.67 986.05 986.50 987.07 987.82 988.79 990.01 991.47 993.13 994.95 996.83 998.70
1010.68 1010.02 1009.33 1008.56 1007.62 1006.44 1004.99 1003.25 1001.22 998.96 996.52 994.00 991.51 989.17 987.06 985.28 983.87 982.86 982.25 981.99 982.03 982.30 982.72 983.23 983.77 984.32 984.89 985.49 986.17 986.98 987.96 989.14 990.52 992.11 993.85 995.69 997.54 999.34
1009.99 1009.29 1008.58 1007.78 1006.83 1005.65 1004.20 1002.46 1000.43 998.16 995.71 993.18 990.66 988.28 986.14 984.33 982.89 981.86 981.23 980.98 981.06 981.38 981.88 982.49 983.17 983.89 984.64 985.45 986.34 987.35 988.51 989.84 991.34 992.99 994.75 996.55 998.33 1000.02
1009.33 1008.58 1007.82 1006.99 1006.01 1004.82 1003.38 1001.66 999.66 997.43 995.04 992.55 990.10 987.77 985.68 983.90 982.50 981.50 980.91 980.70 980.82 981.20 981.77 982.48 983.28 984.13 985.04 986.00 987.05 988.21 989.49 990.90 992.45 994.09 995.80 997.50 999.16 1000.70
1008.70 1007.90 1007.08 1006.20 1005.19 1003.99 1002.56 1000.87 998.95 996.81 994.53 992.18 989.86 987.67 985.71 984.06 982.77 981.86 981.34 981.19 981.37 981.81 982.46 983.24 984.12 985.08 986.09 987.15 988.29 989.52 990.85 992.27 993.78 995.35 996.94 998.51 1000.00 1001.38
1008.11 1007.25 1006.37 1005.43 1004.38 1003.17 1001.76 1000.13 998.31 996.32 994.21 992.06 989.96 987.99 986.25 984.79 983.66 982.90 982.49 982.43 982.67 983.17 983.86 984.69 985.62 986.62 987.68 988.79 989.96 991.19 992.49 993.85 995.27 996.71 998.14 999.52 1000.83 1002.03
1007.56 1006.63 1005.69 1004.69 1003.60 1002.37 1000.99 999.45 997.76 995.95 994.07 992.19 990.37 988.69 987.21 986.00 985.09 984.50 984.23 984.26 984.57 985.10 985.81 986.65 987.59 988.59 989.65 990.75 991.89 993.07 994.30 995.55 996.82 998.10 999.35 1000.54 1001.66 1002.70
1007.04 1006.06 1005.05 1003.98 1002.85 1001.61 1000.27 998.83 997.30 995.71 994.10 992.52 991.03 989.67 988.51 987.58 986.90 986.50 986.36 986.48 986.83 987.37 988.07 988.89 989.80 990.77 991.78 992.84 993.91 995.01 996.13 997.25 998.37 999.48 1000.54 1001.56 1002.51 1003.39
1006.57 1005.52 1004.44 1003.32 1002.14 1000.91 999.62 998.29 996.94 995.58 994.26 993.00 991.85 990.84 990.00 989.35 988.91 988.68 988.67 988.85 989.22 989.75 990.41 991.17 992.02 992.93 993.88 994.87 995.87 996.88 997.88 998.88 999.86 1000.81 1001.72 1002.58 1003.38 1004.13
1006.12 1005.02 1003.88 1002.70 1001.50 1000.28 999.05 997.84 996.67 995.56 994.52 993.59 992.78 992.10 991.57 991.18 990.96 990.88 990.96 991.18 991.54 992.03 992.63 993.32 994.09 994.93 995.81 996.72 997.65 998.58 999.50 1000.40 1001.27 1002.09 1002.87 1003.61 1004.29 1004.94
1005.70 1004.56 1003.38 1002.17 1000.95 999.75 998.60 997.51 996.52 995.63 994.87 994.24 993.74 993.37 993.11 992.96 992.91 992.96 993.10 993.33 993.67 994.09 994.61 995.23 995.92 996.69 997.51 998.36 999.24 1000.11 1000.97 1001.80 1002.58 1003.32 1004.00 1004.64 1005.23 1005.79
1005.32 1004.16 1002.95 1001.73 1000.53 999.36 998.29 997.33 996.50 995.83 995.31 994.95 994.72 994.60 994.57 994.61 994.70 994.84 995.02 995.24 995.53 995.89 996.34 996.87 997.49 998.20 998.97 999.79 1000.63 1001.48 1002.30 1003.08 1003.81 1004.48 1005.09 1005.66 1006.17 1006.65
1004.97 1003.82 1002.63 1001.43 1000.25 999.15 998.16 997.32 996.65 996.16 995.85 995.71 995.70 995.79 995.94 996.12 996.31 996.51 996.70 996.91 997.15 997.45 997.83 998.30 998.86 999.52 1000.26 1001.06 1001.88 1002.71 1003.51 1004.26 1004.95 1005.57 1006.12 1006.61 1007.06 1007.46
1004.69 1003.58 1002.43 1001.27 1000.15 999.12 998.23 997.50 996.97 996.64 996.50 996.53 996.68 996.93 997.21 997.49 997.76 997.99 998.19 998.37 998.58 998.83 999.15 999.57 1000.09 1000.72 1001.44 1002.22 1003.03 1003.84 1004.62 1005.34 1005.99 1006.56 1007.05 1007.47 1007.83 1008.15
1004.47 1003.42 1002.34 1001.26 1000.23 999.29 998.50 997.88 997.47 997.26 997.25 997.41 997.69 998.03 998.40 998.76 999.06 999.31 999.52 999.69 999.87 1000.08 1000.37 1000.76 1001.25 1001.86 1002.56 1003.32 1004.12 1004.90 1005.65 1006.33 1006.92 1007.42 1007.83 1008.17 1008.45 1008.68
1004.32 1003.36 1002.38 1001.40 1000.47 999.64 998.95 998.44 998.13 998.03 998.11 998.35 998.70 999.11 999.54 999.93 1000.26 1000.53 1000.73 1000.90 1001.07 1001.27 1001.54 1001.91 1002.39 1002.98 1003.66 1004.39 1005.15 1005.90 1006.59 1007.20 1007.71 1008.13 1008.45 1008.70 1008.88 1009.02
1004.23 1003.38 1002.51 1001.65 1000.84 1000.12 999.54 999.13 998.91 998.88 999.03 999.33 999.72 1000.17 1000.62 1001.03 1001.38 1001.65 1001.87 1002.05 1002.22 1002.42 1002.69 1003.06 1003.52 1004.09 1004.73 1005.43 1006.13 1006.81 1007.43 1007.95 1008.37 1008.69 1008.92 1009.06 1009.15 1009.21
1004.19 1003.45 1002.71 1001.97 1001.29 1000.69 1000.22 999.91 999.77 999.80 999.99 1000.31 1000.72 1001.18 1001.63 1002.05 1002.41 1002.70 1002.93 1003.12 1003.31 1003.52 1003.80 1004.16 1004.62 1005.16 1005.76 1006.41 1007.04 1007.64 1008.16 1008.59 1008.91 1009.13 1009.26 1009.31 1009.32 1009.31
1004.19 1003.56 1002.94 1002.33 1001.78 1001.30 1000.94 1000.71 1000.64 1000.72 1000.94 1001.27 1001.68 1002.14 1002.58 1003.00 1003.36 1003.66 1003.90 1004.12 1004.32 1004.56 1004.85 1005.22 1005.66 1006.17 1006.73 1007.31 1007.87 1008.38 1008.81 1009.14 1009.36 1009.49 1009.53 1009.51 1009.46 1009.41
1004.20 1003.68 1003.18 1002.70 1002.27 1001.91 1001.65 1001.50 1001.49 1001.61 1001.85 1002.18 1002.59 1003.02 1003.46 1003.86 1004.22 1004.52 1004.79 1005.02 1005.25 1005.51 1005.82 1006.18 1006.61 1007.09 1007.60 1008.12 1008.61 1009.04 1009.39 1009.63 1009.77 1009.83 1009.81 1009.74 1009.65 1009.58
1004.24 1003.82 1003.43 1003.06 1002.75 1002.50 1002.33 1002.26 1002.30 1002.45 1002.70 1003.03 1003.42 1003.84 1004.25 1004.64 1004.99 1005.30 1005.58 1005.83 1006.09 1006.37 1006.68 1007.05 1007.46 1007.92 1008.39 1008.86 1009.28 1009.65 1009.93 1010.11 1010.20 1010.21 1010.15 1010.06 1009.97 1009.90
Thickness
5521 5521 5520 5521 5522 5523 5524 5525 5525 5526 5533 5535 5533 5535 5535 5537 5538 5540 5542 5543 5545 5546 5547 5547 5547 5548 5548 5548 5547 5546 5545 5545 5544 5541 5538 5535 5531 5527
5514 5514 5514 5514 5514 5514 5515 5516 5517 5517 5520 5523 5522 5523 5524 5527 5528 5529 5531 5533 5534 5536 5536 5537 5537 5537 5537 5537 5536 5536 5535 5534 5533 5531 5529 5526 5523 5520
5507 5507 5507 5505 5505 5506 5506 5507 5507 5507 5507 5512 5512 5513 5515 5516 5519 5520 5521 5522 5523 5525 5526 5526 5527 5527 5527 5527 5526 5526 5524 5523 5523 5521 5519 5517 5515 5513
5501 5500 5499 5499 5499 5498 5498 5499 5499 5498 5498 5501 5503 5504 5505 5507 5509 5510 5512 5514 5514 5515 5516 5517 5517 5517 5517 5517 5517 5515 5514 5513 5512 5512 5510 5508 5507 5505
5494 5494 5494 5493 5491 5491 5491 5491 5491 5491 5491 5492 5494 5495 5497 5497 5499 5501 5503 5503 5504 5504 5505 5506 5507 5507 5506 5507 5506 5505 5504 5503 5503 5503 5501 5499 5499 5497
5489 5489 5488 5488 5487 5486 5485 5485 5484 5483 5483 5484 5485 5487 5487 5488 5488 5491 5493 5494 5494 5494 5494 5495 5496 5496 5496 5496 5496 5495 5494 5494 5493 5493 5492 5491 5490 5489
5484 5483 5482 5482 5483 5482 5481 5480 5478 5477 5477 5476 5477 5478 5479 5479 5479 5480 5481 5482 5484 5483 5483 5484 5485 5485 5485 5486 5485 5486 5486 5485 5485 5485 5483 5482 5480 5479
5478 5477 5476 5477 5477 5477 5476 5475 5473 5471 5469 5468 5469 5471 5471 5470 5470 5470 5469 5471 5473 5473 5472 5474 5474 5474 5475 5476 5477 5478 5478 5478 5477 5476 5474 5473 5471 5470
5472 5471 5471 5470 5469 5468 5468 5467 5466 5466 5465 5464 5463 5463 5463 5463 5462 5461 5460 5460 5461 5461 5461 5464 5464 5465 5466 5467 5468 5470 5469 5468 5468 5467 5466 5464 5463 5462
5464 5464 5463 5462 5461 5460 5459 5459 5458 5458 5458 5457 5457 5456 5456 5455 5454 5453 5452 5451 5451 5450 5450 5452 5453 5454 5456 5458 5459 5460 5460 5459 5458 5457 5456 5456 5455 5454
5457 5456 5455 5455 5455 5455 5454 5452 5451 5450 5450 5450 5450 5450 5449 5448 5447 5446 5444 5443 5443 5442 5440 5441 5441 5442 5445 5447 5448 5448 5448 5448 5448 5448 5448 5448 5447 5446
5450 5449 5449 5449 5449 5448 5446 5444 5443 5442 5441 5441 5441 5441 5440 5439 5438 5437 5436 5435 5434 5433 5432 5432 5432 5432 5434 5436 5436 5436 5436 5437 5437 5438 5439 5440 5439 5438
5443 5442 5442 5442 5442 5441 5439 5437 5436 5434 5432 5431 5431 5431 5430 5429 5428 5427 5426 5427 5426 5425 5425 5424 5424 5423 5423 5424 5425 5426 5426 5427 5428 5429 5431 5432 5432 5432
5437 5435 5435 5435 5435 5434 5432 5431 5430 5428 5425 5424 5423 5422 5422 5421 5420 5419 5418 5418 5418 5419 5418 5418 5417 5417 5416 5416 5416 5417 5418 5419 5419 5420 5422 5424 5425 5425
5430 5429 5429 5428 5427 5426 5424 5423 5421 5419 5418 5417 5416 5415 5414 5413 5412 5412 5411 5411 5412 5411 5411 5412 5411 5411 5411 5410 5409 5409 5410 5411 5412 5413 5414 5416 5417 5418
5422 5421 5420 5419 5417 5416 5414 5412 5411 5411 5410 5409 5409 5407 5407 5406 5405 5404 5404 5404 5404 5404 5404 5404 5405 5405 5405 5404 5403 5403 5403 5404 5405 5407 5408 5410 5412 5414
5414 5412 5410 5408 5406 5405 5404 5403 5403 5402 5402 5402 5402 5401 5400 5399 5398 5398 5397 5397 5396 5396 5396 5396 5397 5399 5399 5398 5397 5398 5398 5399 5401 5402 5403 5405 5409 5410
5408 5405 5402 5400 5399 5398 5397 5395 5395 5395 5396 5396 5396 5395 5394 5394 5392 5391 5390 5389 5388 5388 5388 5389 5391 5393 5393 5392 5393 5393 5394 5395 5396 5397 5399 5400 5403 5405
5399 5396 5394 5393 5392 5391 5390 5389 5389 5389 5389 5389 5389 5389 5388 5387 5386 5385 5384 5383 5382 5381 5381 5382 5384 5387 5388 5389 5388 5390 5390 5391 5392 5393 5395 5396 5398 5400
5391 5389 5388 5387 5386 5385 5384 5384 5383 5383 5383 5382 5382 5382 5381 5380 5379 5378 5377 5376 5376 5375 5376 5377 5379 5381 5383 5384 5383 5384 5386 5387 5388 5389 5390 5392 5394 5396
5384 5383 5382 5381 5380 5380 5379 5379 5378 5377 5377 5376 5376 5375 5374 5374 5373 5372 5372 5372 5371 5371 5372 5373 5375 5377 5378 5379 5379 5379 5380 5383 5386 5387 5387 5389 5390 5392
5378 5377 5376 5375 5375 5375 5374 5374 5374 5373 5372 5371 5370 5369 5368 5368 5367 5367 5366 5366 5366 5367 5368 5369 5371 5374 5375 5376 5376 5375 5376 5379 5381 5383 5385 5387 5387 5387
5372 5371 5371 5371 5371 5370 5370 5370 5369 5369 5368 5366 5365 5364 5363 5363 5363 5363 5362 5362 5362 5363 5364 5365 5367 5369 5371 5372 5372 5371 5372 5374 5376 5378 5380 5383 5386 5387